Flag for Canada Weather past 2 weeks in Kelowna, British Columbia, Canada

Now
48 °F

Mostly cloudy.


Feels Like: 48 °F
Forecast: 40 / 69 °F
Wind: No wind

Location: Kelowna Airport

Current Time: Apr 27, 2015 at 12:36:35 AM

Latest Report: Apr 27, 2015 at 12:00 AM


Visibility: 9 mi

Pressure: 30.19 "Hg

Humidity: 66%

Dew point: 37 °F

Location of KelownaLocation

Historic Weather in Kelowna — Graph

°F

Kelowna temperature yesterday

Maximum temperature yesterday: 63 °F (at 3:00 PM)
Minimum temperature yesterday: 34 °F (at 2:00 AM)
Average temperature yesterday: 50 °F

Past Weeks' High & Low Weather Summary

 TemperatureHumidityPressure
High75 °F (Apr 21, 2:00 PM)100% (Apr 25, 4:00 AM)30.45 "Hg (Apr 25, 4:00 AM)
Low27 °F (Apr 15, 6:00 AM)12% (Apr 17, 6:00 PM)29.62 "Hg (Apr 24, 12:00 AM)
Average49 °F53%30.03 "Hg
* Reported Apr 11 11:00 PM — Apr 26 11:00 PM, Kelowna, Weather by CustomWeather, © 2015

Note: Actual official high and low records may vary slightly from our data, if they occured in-between our weather recording intervals... More about our weather records

Advertising

Kelowna weather history for previous 24 hours

 ConditionsComfort  
Time TempWeatherWind HumidityBarometerVisibility
11:00 PM
Sun, Apr 26
50 °FOvercast.No wind54%30.18 "Hg9 mi
10:00 PM50 °FOvercast.3 mph50%30.17 "Hg9 mi
9:00 PM52 °FPartly sunny.2 mph47%30.15 "Hg9 mi
8:00 PM55 °FSunny.7 mph41%30.14 "Hg9 mi
7:00 PM61 °FPassing clouds.5 mph31%30.11 "Hg9 mi
6:00 PM63 °FSunny.3 mph27%30.13 "Hg9 mi
5:00 PM63 °FSunny.6 mph30%30.14 "Hg9 mi
4:00 PM63 °FSunny.5 mph32%30.15 "Hg9 mi
3:00 PM63 °FSunny.8 mph30%30.16 "Hg9 mi
2:00 PM61 °FSunny.13 mph34%30.16 "Hg9 mi
1:00 PM57 °FSunny.2 mph41%30.16 "Hg9 mi
12:00 PM57 °FSunny.6 mph41%30.17 "Hg9 mi
11:00 AM54 °FSunny.5 mph51%30.18 "Hg9 mi
10:00 AM50 °FSunny.8 mph58%30.19 "Hg9 mi
9:00 AM48 °FSunny.7 mph62%30.16 "Hg9 mi
8:00 AM45 °FSunny.No wind71%30.16 "Hg9 mi
7:00 AM43 °FMostly cloudy.No wind76%30.15 "Hg9 mi
6:00 AM39 °FMostly cloudy.No wind87%30.14 "Hg9 mi
5:00 AM37 °FOvercast.No wind87%30.11 "Hg9 mi
4:00 AM37 °FOvercast.2 mph87%30.09 "Hg9 mi
3:00 AM36 °FPassing clouds.2 mph93%30.09 "Hg9 mi
2:00 AM34 °FPassing clouds.No wind87%30.07 "Hg9 mi
1:00 AM36 °FPassing clouds.2 mph87%30.06 "Hg9 mi
12:00 AM37 °FPartly cloudy.2 mph81%30.05 "Hg9 mi
Weather by CustomWeather, © 2015

See weather overviewHow to use our weather pages